Theta_e
321 322 322 322 323 324 323 324 324 330 331 332 333 330 325 323 317 315 313 310 309 308 309 309 307 305 305 306 306 305 304 303 301 300 299 297 297 297 296 295 294 294 293 293
322 323 323 323 322 322 323 323 324 329 330 331 332 331 324 322 318 316 312 310 309 306 304 304 305 304 306 306 305 304 303 301 300 299 297 296 296 295 295 294 294 293 293 293
322 323 323 323 322 322 323 324 324 326 331 331 333 330 326 320 316 314 311 309 309 308 306 304 305 306 307 306 305 304 302 301 299 297 296 295 295 294 294 294 293 293 293 293
322 322 322 322 322 322 323 323 323 327 332 332 333 332 333 322 318 313 310 310 312 308 305 305 307 308 307 306 305 303 301 300 298 296 295 295 294 294 294 293 293 293 292 292
321 321 322 322 322 322 322 325 324 325 330 331 333 332 335 326 322 317 311 311 310 307 306 306 309 308 307 306 304 303 302 299 297 295 294 294 294 294 293 293 292 292 291 291
320 321 322 322 323 322 323 324 326 329 330 331 330 333 336 331 328 320 312 310 309 307 306 308 309 308 307 305 304 302 301 298 296 295 294 294 293 293 293 292 291 291 290 290
320 322 323 322 324 324 325 328 330 331 329 329 328 325 333 329 329 322 313 311 310 307 307 309 309 308 306 305 303 302 300 297 295 294 294 293 293 293 292 292 291 291 290 290
320 321 323 323 325 326 326 328 328 328 326 328 327 328 331 325 326 321 313 314 312 308 309 310 309 307 306 305 303 301 299 296 294 294 294 293 293 292 292 291 291 291 290 290
321 322 323 323 325 326 327 328 327 326 325 325 326 328 326 326 323 319 318 316 312 310 312 310 308 307 306 304 303 301 297 295 294 294 293 293 293 292 292 291 291 291 291 290
323 323 324 323 324 324 325 326 326 325 325 325 324 331 331 327 325 321 319 317 314 313 311 310 308 307 305 303 302 300 296 295 294 293 293 293 293 293 292 291 291 291 290 290
323 324 324 323 323 324 324 326 325 325 326 324 324 334 328 327 325 322 320 317 315 313 311 310 308 307 305 303 301 298 295 295 294 293 293 293 293 292 292 291 291 291 290 289
323 324 326 324 324 324 326 324 325 326 326 327 325 331 325 326 323 321 319 317 314 312 311 309 308 306 305 302 299 296 295 294 293 293 293 293 292 292 292 291 291 290 289 288
324 325 325 324 325 324 325 325 325 325 325 322 323 331 326 324 322 320 317 315 313 311 310 309 307 306 304 300 297 295 294 293 293 292 292 292 292 292 291 291 290 290 288 288
324 325 325 325 324 324 325 324 325 325 325 324 327 329 326 324 322 318 315 314 312 311 309 309 306 305 301 297 295 294 293 293 292 292 292 291 291 291 291 290 290 289 288 288
325 326 326 325 324 324 325 324 324 323 324 323 328 327 325 323 320 316 314 313 312 310 309 308 307 304 298 296 295 293 293 292 292 291 291 291 291 291 290 290 289 289 288 288
329 329 327 325 324 324 324 324 324 324 324 325 326 326 324 319 316 315 314 313 311 310 309 307 304 299 296 295 293 293 293 292 291 291 291 290 290 290 290 289 289 289 289 288
328 328 327 326 325 325 325 324 324 324 323 324 327 325 321 318 316 315 314 312 310 310 308 306 301 297 296 294 293 293 292 292 291 291 290 290 290 290 289 289 289 289 288 288
328 328 326 327 326 330 326 324 324 324 323 324 325 323 319 316 315 315 313 311 310 309 307 303 297 296 295 293 293 293 292 291 291 291 290 290 290 289 289 289 289 288 288 287
326 327 327 329 327 325 323 322 324 324 324 324 323 320 317 316 315 314 312 311 310 308 304 299 297 295 294 293 293 292 292 291 291 291 290 290 289 288 289 289 288 288 288 288
326 326 326 330 329 326 323 323 322 323 324 321 320 318 316 315 317 314 312 310 308 303 298 296 295 294 294 293 292 292 291 291 291 290 290 289 289 288 289 289 288 288 288 288
327 326 326 325 327 325 324 322 322 325 325 320 319 317 315 317 317 312 310 308 302 298 296 295 295 294 293 292 292 291 291 291 290 290 290 289 289 288 288 288 288 287 287 287
325 326 325 324 324 329 322 322 323 325 321 320 319 316 317 315 312 311 308 304 298 296 295 294 294 293 292 292 291 291 290 290 290 290 290 289 289 288 287 287 287 287 287 286
326 325 325 328 327 325 322 322 323 321 320 319 317 317 315 313 311 308 304 299 297 296 295 294 293 292 291 291 291 291 290 290 290 290 290 290 288 288 287 287 287 284 284 283
327 326 329 328 324 323 322 322 321 320 320 318 318 316 314 311 309 304 300 298 297 296 294 293 293 292 292 291 290 290 290 290 290 290 290 289 289 289 288 286 285 284 282 282
325 326 327 326 323 321 321 321 321 320 319 318 316 314 312 309 305 302 299 298 296 295 294 293 293 292 291 289 289 290 290 290 290 290 289 290 289 289 289 288 285 283 282 281
324 327 326 326 322 322 321 321 320 319 318 315 314 313 311 307 303 300 298 297 296 294 294 293 292 288 290 289 290 291 290 289 290 290 290 289 289 289 288 288 287 286 284 283
Wind_Speed
19 11 16 19 17 16 6 9 8 12 5 4 7 14 12 13 13 11 11 12 12 15 14 12 11 9 11 10 8 10 11 13 14 14 14 14 13 13 12 13 16 16 17 17
14 18 19 15 11 13 9 10 9 8 6 8 10 10 11 12 11 10 13 13 15 15 12 11 9 9 9 8 8 10 12 13 14 12 14 14 13 12 13 14 15 17 17 17
21 11 22 10 12 13 13 13 9 6 9 9 13 9 11 9 12 12 12 12 14 15 13 10 10 10 7 7 8 9 11 13 14 16 13 13 12 13 14 15 16 18 17 18
21 20 6 13 15 13 14 15 11 8 9 9 19 3 16 13 10 12 14 15 16 14 11 10 9 8 6 6 7 9 11 13 13 15 14 15 14 15 15 16 18 18 18 18
18 20 13 14 14 14 12 1 8 11 12 12 17 9 11 14 10 12 16 16 16 14 12 11 9 7 5 5 7 9 11 12 13 13 14 14 14 14 15 17 18 19 18 18
20 17 15 16 11 12 8 6 6 7 13 11 3 10 15 9 14 16 17 18 17 15 12 10 8 6 4 5 7 9 11 12 12 13 14 14 14 15 17 19 19 20 19 19
21 15 13 12 10 9 11 11 8 10 11 8 2 6 9 9 5 22 25 22 21 16 13 10 7 5 4 5 7 10 11 11 12 13 14 14 14 15 16 19 20 21 21 21
17 19 18 13 14 11 16 15 12 8 7 5 8 4 6 7 14 25 25 26 19 17 13 9 6 4 3 4 7 10 11 12 13 14 14 14 14 15 16 19 20 20 22 22
18 16 20 19 16 15 13 15 9 10 8 7 3 10 9 12 19 24 26 23 19 16 13 10 6 5 3 4 6 10 11 12 13 14 14 15 15 17 18 20 20 22 23 24
11 13 21 12 15 12 8 12 9 10 12 11 5 9 8 13 19 19 20 20 18 16 12 9 6 4 3 4 7 9 11 12 13 13 14 15 16 18 19 20 22 23 24 24
8 14 12 13 14 16 12 10 9 9 5 7 10 7 7 15 16 16 19 18 17 14 11 8 5 3 3 5 8 10 11 13 13 14 15 16 18 19 19 21 22 23 24 24
13 11 12 18 19 11 11 19 16 7 5 2 6 5 0 15 18 20 19 18 16 13 11 7 5 3 3 5 8 10 11 12 13 14 15 17 18 19 20 22 23 23 24 23
12 8 11 14 7 11 10 6 6 2 5 12 5 6 8 18 19 19 19 18 16 13 11 8 5 3 4 6 8 9 11 12 13 14 15 17 18 20 21 22 23 23 24 23
12 9 12 11 16 15 14 9 11 7 6 3 3 18 16 16 17 19 19 17 16 13 10 8 5 3 4 6 7 9 11 12 14 15 16 17 19 20 21 22 22 23 23 23
11 9 4 4 8 14 13 11 7 8 4 6 14 16 18 17 17 20 19 17 16 13 10 6 4 4 4 6 7 8 10 12 14 15 17 18 19 20 21 21 22 23 23 23
7 6 10 7 7 9 8 6 5 5 4 9 15 17 17 21 21 21 19 17 15 12 9 7 6 5 5 6 7 8 11 13 14 16 17 18 20 20 21 21 22 23 23 23
10 12 10 6 10 10 7 7 7 7 2 13 16 18 23 19 21 20 19 17 15 12 10 8 6 5 5 5 7 9 11 12 14 16 17 18 19 20 20 21 22 23 23 24
12 14 5 8 10 8 6 4 8 10 11 10 21 21 21 22 21 19 17 17 16 13 12 9 7 7 5 5 7 9 10 12 14 16 17 18 19 19 20 20 22 23 23 25
14 8 6 6 10 6 7 9 13 15 12 15 20 23 25 25 24 17 16 16 16 14 12 10 9 7 6 6 8 8 10 12 14 16 17 18 19 19 19 21 22 23 24 25
13 6 5 9 10 6 6 17 16 18 9 22 28 28 30 29 13 13 18 19 18 16 14 12 10 8 7 7 8 9 10 12 14 15 16 17 17 17 19 20 21 22 22 23
12 11 9 9 8 4 14 19 17 13 11 29 30 31 30 16 16 29 24 21 18 17 16 13 11 8 7 7 8 9 10 12 13 14 15 16 17 17 18 19 21 22 22 24
12 8 7 10 8 6 19 17 11 11 32 35 31 31 24 28 35 32 26 23 20 18 16 13 11 9 7 7 7 8 10 11 12 13 14 16 16 17 18 20 21 23 25 26
9 5 6 4 2 11 26 10 12 28 36 33 35 31 31 32 33 31 27 23 20 18 16 13 11 10 8 8 8 8 9 10 12 13 14 15 15 16 19 20 21 25 28 28
3 4 5 7 9 20 16 18 22 28 33 34 34 34 33 35 32 30 27 24 21 18 16 14 12 9 8 8 8 8 10 13 12 12 13 13 15 15 16 20 21 24 31 32
2 11 11 13 16 16 14 19 28 30 33 34 32 33 34 35 31 30 27 24 21 19 17 14 12 10 9 8 8 8 9 9 9 10 11 12 13 13 13 15 22 24 26 29
11 12 7 7 26 10 24 27 32 37 36 36 37 34 32 33 32 29 26 23 22 20 18 15 12 11 10 8 9 7 8 9 8 9 10 13 11 11 12 13 13 20 25 28
Wind_Direction
201 219 222 231 226 258 316 291 261 101 93 110 114 140 147 149 129 141 133 126 119 123 125 117 103 94 69 71 57 40 23 17 12 355 359 354 346 343 341 339 338 340 333 335
201 228 243 229 238 230 244 237 236 80 146 248 144 132 150 157 157 159 150 140 137 133 133 121 109 91 91 75 53 30 19 10 11 8 356 353 347 346 340 337 338 334 333 332
225 232 222 232 224 232 227 242 232 264 170 225 151 157 157 131 134 141 146 149 148 146 141 129 109 105 94 68 45 25 17 11 6 7 355 357 353 346 340 342 338 336 333 331
227 245 210 214 233 211 229 215 251 175 211 222 206 309 177 165 157 157 154 159 153 144 140 132 119 113 92 60 39 24 16 6 5 359 3 0 354 349 345 341 336 339 334 332
220 233 204 230 217 207 244 316 243 227 222 275 194 251 112 160 179 174 164 161 151 148 148 134 126 112 82 49 26 19 8 4 2 2 359 0 354 351 345 340 341 337 337 335
233 211 218 228 215 229 231 218 231 218 234 243 34 249 144 174 200 169 166 163 158 156 152 138 132 116 88 52 29 13 5 1 359 0 359 357 355 352 348 343 343 340 337 336
224 214 224 221 180 192 204 195 199 216 220 265 258 286 63 89 108 161 161 162 159 160 155 152 144 119 90 53 26 9 2 0 358 358 357 355 354 351 349 344 341 342 338 336
210 207 201 192 199 185 204 208 246 254 297 133 183 28 92 89 95 135 152 158 157 161 162 154 141 121 81 46 23 10 3 357 358 357 356 354 351 348 347 343 341 339 337 335
206 211 177 194 211 209 197 232 276 300 271 281 252 98 103 117 115 138 155 149 158 164 162 151 143 122 75 35 15 10 7 0 357 356 355 352 348 346 344 343 341 338 336 335
218 208 182 177 211 223 263 215 220 230 264 270 313 98 107 148 139 147 149 153 158 160 155 149 136 110 66 33 10 5 3 358 356 356 354 350 348 343 342 342 339 338 337 336
227 231 173 165 208 195 200 230 239 309 320 311 304 85 78 148 147 151 154 153 156 155 153 148 129 87 57 16 5 359 0 358 355 356 352 350 347 344 342 341 339 339 338 336
216 219 175 199 210 247 293 212 220 235 212 169 298 93 199 128 142 149 146 149 149 149 146 137 120 84 36 11 6 0 359 357 358 355 351 348 345 344 343 342 342 341 339 340
187 223 199 165 181 207 229 247 279 321 311 285 286 105 143 131 135 140 141 143 145 143 139 132 117 73 30 15 7 3 359 359 359 355 353 347 347 346 345 344 344 343 342 343
188 231 221 200 211 187 197 202 219 223 283 313 58 134 142 142 138 140 141 144 144 146 143 127 105 81 42 20 14 8 2 0 359 357 354 350 350 349 346 345 345 345 346 346
195 207 194 1 142 165 181 187 203 248 341 304 125 141 151 147 145 144 144 144 145 142 141 126 106 77 46 28 13 10 4 2 0 358 355 353 351 350 348 348 347 348 348 349
200 155 157 110 130 141 154 159 121 111 111 104 126 134 139 140 138 142 146 148 146 144 135 126 110 85 56 35 19 10 5 4 2 359 356 352 352 353 351 350 350 351 353 352
168 164 173 135 146 136 156 160 146 124 128 140 145 140 140 142 145 148 148 148 143 140 134 126 113 95 72 40 26 13 7 3 2 359 356 355 354 355 354 353 355 356 355 354
170 176 147 158 151 205 96 127 133 129 122 123 120 139 144 143 141 141 145 141 139 137 131 125 116 101 75 49 23 15 9 6 1 0 358 356 357 358 357 358 360 359 358 356
176 157 135 157 187 113 155 182 155 145 135 132 137 143 139 136 129 127 134 138 136 134 130 126 120 104 82 49 30 23 13 7 5 4 1 0 1 1 360 2 2 1 359 359
167 181 160 176 176 201 160 161 162 127 141 143 149 144 142 146 147 137 139 137 132 131 128 124 117 102 76 52 40 29 17 14 9 5 4 4 5 8 5 6 5 4 4 2
177 177 166 168 184 90 135 156 152 202 140 155 152 149 153 177 160 146 141 137 134 132 129 123 116 103 77 58 44 31 23 18 10 7 9 10 14 15 11 12 12 11 12 10
168 171 191 172 178 156 156 153 180 114 143 150 150 153 143 122 127 137 140 139 137 134 129 126 116 101 81 64 53 38 30 20 17 13 16 17 22 22 19 20 20 19 18 16
182 186 166 1 96 140 156 166 128 146 145 150 149 145 137 135 136 139 140 140 139 137 132 129 121 109 87 71 62 47 29 27 21 20 26 23 31 28 26 28 27 27 27 23
112 137 105 148 117 124 129 130 140 146 146 147 146 145 144 139 142 141 141 142 142 140 136 135 125 115 97 77 61 47 33 32 25 24 33 30 28 35 30 35 33 30 31 29
143 157 127 106 141 129 148 145 144 144 144 142 145 145 145 143 145 144 144 145 145 143 141 138 135 128 115 96 74 55 42 43 39 39 41 41 33 32 29 16 20 25 27 25
171 149 175 178 169 161 152 147 148 146 146 146 144 144 146 147 147 147 146 148 147 145 145 143 147 140 116 100 90 59 53 53 56 50 42 56 37 35 28 21 16 3 14 15